Location: Bh?mavarapp?du
(16.7041°N, 80.6518°E)
Time: 07:10:10
(UTC+00:00)

Meteor 2-10 Rocket - Pass Details

Date: 21 April 2021
Orbit: 735 x 884 km, 81.2° (Epoch: 06 May)

Event Time Altitude Azimuth Distance (km) Brightness Sun altitude
Rises 13:11:03 0° 172° (S) 3,171 6.5 -4.7°
Reaches altitude 10° 13:13:25 10° 166° (SSE) 2,262 5.7 -5.3°
Maximum altitude 13:18:15 46° 93° (E) 1,024 3.8 -6.4°
Drops below altitude 10° 13:23:16 10° 21° (NNE) 2,344 6.0 -7.6°
Sets 13:25:45 0° 16° (NNE) 3,298 6.8 -8.1°
